Погода в Можайском

Россия / Белгородская область     50°43′47″N   37°35′26″E
темп.,
°C
ветер,
м/с
пор.,
м/с
влажн.,
%
обл.,
%
осадки,
мм/ч
давл.,
гПа
погр.,
м
13 мая, чт
чт1300:00+8вюв379038 0.0 1015188
03:00+7вюв5129698 1.1 1015435
06:00+9юв5109785 0.4 1014367
09:00+11юв5788100 0.6 1014631
12:00+16ю576453 0.1 10141645
15:00+18ю575215 0.2 10132015
18:00+18ю35648 0.0 1013460
21:00+13ююв1177100 0.0 101410
14 мая, пт
пт1400:00+12в2281100 0.0 101411
03:00+12в3492100 0.0 101457
06:00+12в3892100 0.0 1014175
09:00+18вюв61177100 0.0 1013553
12:00+20ююв61171100 0.0 1012946
15:00+19вюв71175100 0.3 1010346
18:00+20ююв41179100 0.0 1011757
21:00+17юв31090100 0.0 1010188
15 мая, сб
сб1500:00+16ююз379458 0.0 1010129
03:00+14юз33872 0.0 101028
06:00+13юз3789100 0.0 1012153
09:00+16юз4678100 0.0 1013352
12:00+21юз57580 0.0 10131483
15:00+22ююз585367 0.0 10142020
18:00+20зюз356869 0.0 1014228
21:00+17зюз116597 0.1 101411
16 мая, вс
вс1600:00+16вюв1265100 0.0 101411
03:00+14юв2276100 0.0 101411
06:00+15в117930 0.0 101511
09:00+20вюв22660 0.0 1015399
12:00+23в33545 0.0 10141390
15:00+24всв3350100 0.0 10131506
18:00+23всв366992 0.1 1012307
21:00+18св488654 0.1 1012119
17 мая, пн
пн1700:00+16всв358377 0.0 101172
03:00+15всв497938 0.0 1010145
06:00+15в411806 0.0 1010197
09:00+21вюв6136095 0.0 1010434
12:00+25юв7124938 0.0 1009893
15:00+26вюв813541 0.0 10081795
18:00+23юв612625 0.0 1008572
21:00+18юв411803 0.0 1008184